Location: El Carrer d�Abaix
(41.5797°N, 2.1791°E)
Time: 00:04:35
(UTC+00:00)

STARLINK-1378 - Pass Details

Date: 03 October 2020
Orbit: 548 x 551 km, 53.0° (Epoch: 27 October)

Event Time Altitude Azimuth Distance (km) Brightness Sun altitude
Exits shadow 04:44:22 13° 307° (NW) 1,661 5.6 -13.2°
Maximum altitude 04:46:48 19° 348° (NNW) 1,330 5.5 -12.7°
Drops below altitude 10° 04:49:50 10° 35° (NE) 1,828 6.9 -12.2°
Sets 04:52:36 0° 53° (NE) 2,724 8.2 -11.7°
